ONEWEB-0138 (47284 NORAD) Tracking and Keplerian Element Data

This shows tracking and keplerian element data for the satellite.

Feedback or suggestion? Click here.




ElementValue
Catalog47284
NameONEWEB-0138
Epoch Orbit171
Epoch Day62.91667824
Epoch Year2021
RAAN15.4083
Inclination87.5909
Eccentricity0.0013135
Argument of Perigee29.0407
Mean Anonmoly262.4153
Mean Motion13.96313657
Decay Rate-0.00709772
L11 47284U 20100AC 21062.91667824 -.00709772 00000-0 -54112+0 0 9998
L22 47284 87.5909 15.4083 0013135 29.0407 262.4153 13.96313657 1717

Live tracking and technical data element details for ONEWEB-0138 (NORAD 47284). ONEWEB-0138 can be tracked NOW for your location showing map with azimuth and elevation plus other details from your city location.

Track the satellite on the map from your city or location and see movement details for azimuth, elevation, latitude, longitude, range, height, and movement on the map or in text.







IsCatalogInMostPopularTable: catalog: 47284, numindb: 25
Update: records affected: 1



GetName: 47284 ONEWEB-0138

Hit Count: updated at: Fri, 05 Mar 2021 06:11:59 GMT